When you browse on this site, cookies collect data to enhance your experience and personalize the content and advertising you see.
Visit our Privacy Policy to learn more. By continuing to use the site, you agree to this use of cookies and data.
  • En España
  • Lista de países
  • Para 7 días
  • Temperatura del agua
  • El tiempo en el mapa
  • Informadores
  • user-avatar
    Iniciar sesión

    Tiempo cada hora Welwyn Garden City

    Hoy, 20 Febrero, Jueves

    Tiempo Temperatura Precipitaciones Viento Presión Humedad
    00:00 +6°C° 0 mm 5 mps 751 mmHg 89%
    01:00 +7°C° 0 mm 6 mps 751 mmHg 88%
    02:00 +6°C° 0 mm 7 mps 750 mmHg 87%
    03:00 +6°C° 0 mm 7 mps 750 mmHg 86%
    04:00 +6°C° 0 mm 8 mps 750 mmHg 85%
    05:00 +6°C° 0 mm 8 mps 749 mmHg 85%
    06:00 +6°C° 0 mm 8 mps 749 mmHg 84%
    07:00 +7°C° 0 mm 8 mps 748 mmHg 83%
    08:00 +7°C° 0 mm 9 mps 748 mmHg 83%
    09:00 +7°C° 0 mm 9 mps 747 mmHg 83%
    10:00 +7°C° 0.4 mm 10 mps 746 mmHg 84%
    11:00 +7°C° 0.4 mm 11 mps 746 mmHg 85%
    12:00 +7°C° 0.4 mm 12 mps 745 mmHg 86%
    13:00 +6°C° 1.2 mm 10 mps 746 mmHg 83%
    14:00 +5°C° 1.2 mm 9 mps 747 mmHg 80%
    15:00 +2°C° 1.2 mm 8 mps 748 mmHg 78%
    16:00 +2°C° 0.1 mm 8 mps 749 mmHg 75%
    17:00 +2°C° 0.1 mm 7 mps 751 mmHg 73%
    18:00 0°C° 0.1 mm 7 mps 753 mmHg 71%
    19:00 0°C° 0 mm 7 mps 754 mmHg 72%
    20:00 +1°C° 0 mm 6 mps 755 mmHg 73%
    21:00 -1°C° 0 mm 6 mps 755 mmHg 74%
    22:00 -1°C° 0 mm 6 mps 756 mmHg 74%
    23:00 -1°C° 0 mm 6 mps 757 mmHg 75%

    Mañana, 21 Febrero, Viernes

    Tiempo Temperatura Precipitaciones Viento Presión Humedad
    00:00 -1°C° 0 mm 6 mps 758 mmHg 76%
    01:00 -1°C° 0 mm 6 mps 758 mmHg 77%
    02:00 -1°C° 0 mm 6 mps 759 mmHg 78%
    03:00 -1°C° 0 mm 6 mps 759 mmHg 80%
    04:00 -1°C° 0 mm 6 mps 759 mmHg 81%
    05:00 +1°C° 0 mm 6 mps 759 mmHg 82%
    06:00 +1°C° 0 mm 6 mps 759 mmHg 83%
    13:00 +6°C° 0 mm 9 mps 758 mmHg 73%
    14:00 +6°C° 0 mm 9 mps 758 mmHg 73%
    15:00 +7°C° 0 mm 9 mps 757 mmHg 73%
    16:00 +6°C° 0 mm 8 mps 757 mmHg 75%
    17:00 +6°C° 0 mm 8 mps 757 mmHg 76%
    18:00 +6°C° 0 mm 8 mps 757 mmHg 78%
    19:00 +6°C° 0 mm 9 mps 756 mmHg 77%
    20:00 +6°C° 0 mm 9 mps 756 mmHg 77%
    21:00 +6°C° 0 mm 10 mps 756 mmHg 77%
    22:00 +6°C° 0 mm 10 mps 755 mmHg 77%
    23:00 +6°C° 0 mm 10 mps 755 mmHg 77%

    Pasado mañana, 22 Febrero, Sábado

    Tiempo Temperatura Precipitaciones Viento Presión Humedad
    00:00 +6°C° 0 mm 10 mps 755 mmHg 77%
    01:00 +6°C° 0 mm 10 mps 754 mmHg 78%
    02:00 +6°C° 0 mm 10 mps 754 mmHg 79%
    03:00 +7°C° 0 mm 10 mps 753 mmHg 80%
    04:00 +7°C° 0.1 mm 10 mps 753 mmHg 81%
    05:00 +7°C° 0.1 mm 10 mps 753 mmHg 83%
    06:00 +8°C° 0.1 mm 10 mps 752 mmHg 84%
    07:00 +8°C° 0.1 mm 10 mps 753 mmHg 84%
    08:00 +9°C° 0.1 mm 10 mps 753 mmHg 83%
    09:00 +10°C° 0.1 mm 9 mps 753 mmHg 83%
    10:00 +9°C° 0.1 mm 10 mps 753 mmHg 78%
    11:00 +9°C° 0.1 mm 10 mps 754 mmHg 73%
    12:00 +9°C° 0.1 mm 11 mps 754 mmHg 68%
    13:00 +9°C° 0 mm 11 mps 754 mmHg 68%
    14:00 +8°C° 0 mm 10 mps 754 mmHg 68%
    15:00 +8°C° 0 mm 10 mps 754 mmHg 67%
    16:00 +7°C° 0 mm 9 mps 755 mmHg 68%
    17:00 +6°C° 0 mm 9 mps 755 mmHg 68%
    18:00 +6°C° 0 mm 8 mps 756 mmHg 68%
    19:00 +5°C° 0 mm 8 mps 756 mmHg 69%
    20:00 +5°C° 0 mm 7 mps 757 mmHg 70%
    21:00 +4°C° 0 mm 7 mps 757 mmHg 71%
    22:00 +4°C° 0 mm 7 mps 758 mmHg 72%
    23:00 +4°C° 0 mm 7 mps 758 mmHg 73%

    23 Febrero, Domingo

    Tiempo Temperatura Precipitaciones Viento Presión Humedad
    00:00 +4°C° 0 mm 7 mps 758 mmHg 75%
    01:00 +4°C° 0 mm 7 mps 758 mmHg 76%
    02:00 +4°C° 0 mm 6 mps 758 mmHg 77%
    03:00 +4°C° 0 mm 6 mps 758 mmHg 78%
    04:00 +5°C° 0.6 mm 5 mps 757 mmHg 83%
    05:00 +5°C° 0.6 mm 4 mps 757 mmHg 88%
    06:00 +5°C° 0.6 mm 3 mps 756 mmHg 93%
    07:00 +5°C° 1.2 mm 3 mps 755 mmHg 94%
    08:00 +6°C° 1.2 mm 4 mps 754 mmHg 94%
    09:00 +6°C° 1.2 mm 4 mps 754 mmHg 95%
    10:00 +7°C° 0.7 mm 5 mps 754 mmHg 93%
    11:00 +7°C° 0.7 mm 5 mps 754 mmHg 91%
    12:00 +8°C° 0.7 mm 6 mps 754 mmHg 89%
    13:00 +8°C° 0.1 mm 6 mps 755 mmHg 86%
    14:00 +8°C° 0.1 mm 6 mps 755 mmHg 83%
    15:00 +8°C° 0.1 mm 5 mps 756 mmHg 80%
    16:00 +7°C° 0 mm 5 mps 757 mmHg 82%
    17:00 +5°C° 0 mm 4 mps 758 mmHg 84%
    18:00 +4°C° 0 mm 3 mps 759 mmHg 85%
    19:00 +4°C° 0 mm 3 mps 759 mmHg 85%
    20:00 +4°C° 0 mm 2 mps 760 mmHg 84%
    21:00 +5°C° 0 mm 1 mps 760 mmHg 84%
    22:00 +5°C° 0 mm 1 mps 760 mmHg 83%
    23:00 +5°C° 0 mm 1 mps 760 mmHg 81%

    24 Febrero, Lunes

    Tiempo Temperatura Precipitaciones Viento Presión Humedad
    00:00 +5°C° 0 mm 1 mps 760 mmHg 80%
    01:00 +4°C° 0 mm 2 mps 760 mmHg 82%
    02:00 +4°C° 0 mm 3 mps 759 mmHg 83%
    03:00 +3°C° 0 mm 5 mps 758 mmHg 85%
    04:00 +5°C° 0.1 mm 5 mps 757 mmHg 88%
    05:00 +5°C° 0.1 mm 6 mps 756 mmHg 92%
    06:00 +7°C° 0.1 mm 6 mps 754 mmHg 95%
    07:00 +8°C° 0 mm 7 mps 754 mmHg 93%
    08:00 +9°C° 0 mm 8 mps 753 mmHg 91%
    09:00 +9°C° 0 mm 10 mps 752 mmHg 88%
    10:00 +9°C° 0 mm 10 mps 751 mmHg 86%
    11:00 +9°C° 0 mm 10 mps 751 mmHg 84%
    12:00 +9°C° 0 mm 11 mps 750 mmHg 82%
    13:00 +9°C° 0.3 mm 10 mps 749 mmHg 84%
    14:00 +9°C° 0.3 mm 10 mps 749 mmHg 85%
    15:00 +9°C° 0.3 mm 10 mps 749 mmHg 87%
    16:00 +8°C° 0 mm 9 mps 749 mmHg 84%
    17:00 +7°C° 0 mm 9 mps 749 mmHg 82%
    18:00 +7°C° 0 mm 8 mps 749 mmHg 79%
    19:00 +6°C° 0 mm 7 mps 750 mmHg 78%
    20:00 +5°C° 0 mm 7 mps 750 mmHg 78%
    21:00 +4°C° 0 mm 7 mps 751 mmHg 77%
    22:00 +4°C° 0 mm 6 mps 751 mmHg 77%
    23:00 +3°C° 0 mm 6 mps 751 mmHg 78%

    25 Febrero, Martes

    Tiempo Temperatura Precipitaciones Viento Presión Humedad
    00:00 +3°C° 0 mm 6 mps 751 mmHg 78%
    01:00 +2°C° 0 mm 6 mps 751 mmHg 78%
    02:00 +2°C° 0 mm 6 mps 751 mmHg 77%
    03:00 +2°C° 0 mm 6 mps 751 mmHg 76%
    04:00 +2°C° 0 mm 5 mps 751 mmHg 78%
    05:00 +1°C° 0 mm 5 mps 751 mmHg 79%
    06:00 +1°C° 0 mm 5 mps 751 mmHg 80%
    07:00 +2°C° 0 mm 5 mps 750 mmHg 79%
    08:00 +2°C° 0 mm 5 mps 750 mmHg 77%
    09:00 +3°C° 0 mm 5 mps 750 mmHg 76%
    10:00 +4°C° 0 mm 6 mps 749 mmHg 73%
    11:00 +4°C° 0 mm 6 mps 749 mmHg 70%
    12:00 +5°C° 0 mm 7 mps 749 mmHg 67%
    13:00 +5°C° 0.1 mm 7 mps 748 mmHg 67%
    14:00 +6°C° 0.1 mm 7 mps 747 mmHg 67%
    15:00 +6°C° 0.1 mm 7 mps 746 mmHg 67%
    16:00 +5°C° 0 mm 6 mps 745 mmHg 71%
    17:00 +4°C° 0 mm 6 mps 745 mmHg 75%
    18:00 +3°C° 0 mm 5 mps 744 mmHg 79%
    19:00 +4°C° 0.1 mm 6 mps 743 mmHg 79%
    20:00 +4°C° 0.1 mm 6 mps 743 mmHg 80%
    21:00 +4°C° 0.1 mm 7 mps 742 mmHg 80%
    22:00 +3°C° 0.1 mm 7 mps 741 mmHg 80%
    23:00 +2°C° 0.1 mm 8 mps 741 mmHg 79%
    Mostrar más